• In Romania
  • List of Countries
  • For 7 days
  • Water Temperature
  • Satellite Maps
  • Weather Map
  • Weather Widgets
  • user-avatar
    Login

    Hourly Weather Maloe Nikitino

    Today, 17 July, Tuesday

    Time Temperature Precipitation Wind Pressure Humidity
    00:00 +19°C° 0 mm 2 mps 745 mmHg 83%
    01:00 +18°C° 0 mm 2 mps 745 mmHg 85%
    02:00 +18°C° 0 mm 2 mps 745 mmHg 93%
    03:00 +18°C° 0 mm 2 mps 745 mmHg 89%
    04:00 +19°C° 0 mm 3 mps 745 mmHg 85%
    05:00 +20°C° 0 mm 3 mps 745 mmHg 81%
    06:00 +21°C° 0 mm 4 mps 745 mmHg 73%
    07:00 +23°C° 0 mm 4 mps 745 mmHg 66%
    08:00 +26°C° 0 mm 5 mps 745 mmHg 58%
    09:00 +27°C° 0 mm 5 mps 745 mmHg 54%
    10:00 +28°C° 0 mm 5 mps 745 mmHg 50%
    11:00 +29°C° 0 mm 5 mps 745 mmHg 46%
    12:00 +29°C° 0 mm 6 mps 744 mmHg 44%
    13:00 +30°C° 0 mm 6 mps 744 mmHg 42%
    14:00 +30°C° 0 mm 6 mps 744 mmHg 41%
    15:00 +29°C° 0 mm 5 mps 744 mmHg 42%
    16:00 +29°C° 0 mm 5 mps 744 mmHg 44%
    17:00 +29°C° 0 mm 4 mps 744 mmHg 45%
    18:00 +27°C° 0 mm 4 mps 743 mmHg 51%
    19:00 +25°C° 0 mm 4 mps 743 mmHg 57%
    20:00 +22°C° 0 mm 3 mps 743 mmHg 63%
    21:00 +22°C° 0 mm 3 mps 743 mmHg 64%
    22:00 +21°C° 0 mm 3 mps 743 mmHg 66%
    23:00 +21°C° 0 mm 3 mps 743 mmHg 67%

    Tomorrow, 18 July, Wednesday

    Time Temperature Precipitation Wind Pressure Humidity
    00:00 +20°C° 0 mm 4 mps 743 mmHg 68%
    01:00 +20°C° 0 mm 4 mps 743 mmHg 69%
    02:00 +20°C° 0 mm 4 mps 743 mmHg 69%
    03:00 +20°C° 0 mm 4 mps 743 mmHg 70%
    04:00 +20°C° 0 mm 4 mps 743 mmHg 71%
    05:00 +20°C° 0 mm 5 mps 743 mmHg 72%
    06:00 +21°C° 0 mm 5 mps 743 mmHg 66%
    07:00 +22°C° 0 mm 5 mps 743 mmHg 61%
    08:00 +24°C° 0 mm 6 mps 742 mmHg 56%
    09:00 +26°C° 0 mm 6 mps 742 mmHg 53%
    10:00 +27°C° 0 mm 6 mps 742 mmHg 50%
    11:00 +28°C° 0 mm 6 mps 742 mmHg 47%
    12:00 +28°C° 0.3 mm 6 mps 742 mmHg 51%
    13:00 +28°C° 0.3 mm 6 mps 741 mmHg 56%
    14:00 +27°C° 0.3 mm 6 mps 741 mmHg 60%
    15:00 +27°C° 0.2 mm 6 mps 741 mmHg 61%
    16:00 +26°C° 0.2 mm 6 mps 741 mmHg 62%
    17:00 +26°C° 0.2 mm 5 mps 741 mmHg 64%
    18:00 +25°C° 0 mm 5 mps 741 mmHg 68%
    19:00 +22°C° 0 mm 4 mps 742 mmHg 72%
    20:00 +21°C° 0 mm 4 mps 742 mmHg 76%
    21:00 +21°C° 0 mm 4 mps 742 mmHg 77%
    22:00 +21°C° 0 mm 4 mps 742 mmHg 78%
    23:00 +20°C° 0 mm 4 mps 742 mmHg 79%

    Day after tomorrow, 19 July, Thursday

    Time Temperature Precipitation Wind Pressure Humidity
    00:00 +20°C° 0 mm 4 mps 741 mmHg 80%
    01:00 +20°C° 0 mm 4 mps 741 mmHg 81%
    02:00 +19°C° 0 mm 4 mps 741 mmHg 81%
    03:00 +20°C° 0 mm 4 mps 741 mmHg 80%
    04:00 +20°C° 0 mm 4 mps 741 mmHg 79%
    05:00 +20°C° 0 mm 5 mps 741 mmHg 78%
    06:00 +21°C° 0.1 mm 5 mps 741 mmHg 74%
    07:00 +22°C° 0.1 mm 5 mps 741 mmHg 70%
    08:00 +23°C° 0.1 mm 6 mps 741 mmHg 65%
    09:00 +26°C° 0 mm 6 mps 742 mmHg 62%
    10:00 +27°C° 0 mm 6 mps 742 mmHg 58%
    11:00 +28°C° 0 mm 6 mps 742 mmHg 55%
    12:00 +27°C° 0.9 mm 6 mps 742 mmHg 64%
    13:00 +26°C° 0.9 mm 5 mps 741 mmHg 72%
    14:00 +25°C° 0.9 mm 5 mps 741 mmHg 81%
    15:00 +26°C° 0.3 mm 5 mps 741 mmHg 77%
    16:00 +26°C° 0.3 mm 5 mps 741 mmHg 74%
    17:00 +26°C° 0.3 mm 5 mps 742 mmHg 71%
    18:00 +25°C° 0.4 mm 5 mps 742 mmHg 75%
    19:00 +23°C° 0.4 mm 4 mps 742 mmHg 80%
    20:00 +22°C° 0.4 mm 3 mps 742 mmHg 84%
    21:00 +21°C° 0.3 mm 3 mps 742 mmHg 87%
    22:00 +21°C° 0.3 mm 3 mps 742 mmHg 90%
    23:00 +20°C° 0.3 mm 3 mps 742 mmHg 92%

    20 July, Friday

    Time Temperature Precipitation Wind Pressure Humidity
    00:00 +20°C° 0 mm 3 mps 742 mmHg 93%
    01:00 +19°C° 0 mm 3 mps 742 mmHg 94%
    02:00 +19°C° 0 mm 3 mps 742 mmHg 95%
    03:00 +19°C° 0 mm 4 mps 742 mmHg 93%
    04:00 +19°C° 0 mm 4 mps 742 mmHg 91%
    05:00 +19°C° 0 mm 4 mps 742 mmHg 89%
    06:00 +20°C° 0 mm 4 mps 743 mmHg 86%
    07:00 +21°C° 0 mm 5 mps 743 mmHg 82%
    08:00 +21°C° 0 mm 5 mps 743 mmHg 78%
    09:00 +22°C° 0 mm 5 mps 743 mmHg 74%
    10:00 +23°C° 0 mm 5 mps 743 mmHg 70%
    11:00 +23°C° 0 mm 5 mps 743 mmHg 66%
    12:00 +25°C° 0 mm 5 mps 743 mmHg 65%
    13:00 +25°C° 0 mm 5 mps 743 mmHg 63%
    14:00 +25°C° 0 mm 5 mps 742 mmHg 61%
    15:00 +25°C° 0 mm 5 mps 742 mmHg 62%
    16:00 +25°C° 0 mm 4 mps 742 mmHg 63%
    17:00 +25°C° 0 mm 4 mps 742 mmHg 64%
    18:00 +24°C° 0.1 mm 3 mps 742 mmHg 71%
    19:00 +21°C° 0.1 mm 3 mps 742 mmHg 79%
    20:00 +20°C° 0.1 mm 2 mps 742 mmHg 86%
    21:00 +19°C° 0 mm 2 mps 742 mmHg 89%
    22:00 +19°C° 0 mm 2 mps 741 mmHg 93%
    23:00 +18°C° 0 mm 2 mps 741 mmHg 96%

    21 July, Saturday

    Time Temperature Precipitation Wind Pressure Humidity
    00:00 +18°C° 0 mm 2 mps 741 mmHg 96%
    01:00 +18°C° 0 mm 2 mps 741 mmHg 96%
    02:00 +18°C° 0 mm 2 mps 741 mmHg 97%
    03:00 +18°C° 0.1 mm 2 mps 741 mmHg 96%
    04:00 +18°C° 0.1 mm 3 mps 741 mmHg 96%
    05:00 +19°C° 0.1 mm 3 mps 741 mmHg 96%
    06:00 +19°C° 0.1 mm 3 mps 741 mmHg 95%
    07:00 +19°C° 0.1 mm 3 mps 741 mmHg 94%
    08:00 +20°C° 0.1 mm 3 mps 741 mmHg 93%
    09:00 +20°C° 0 mm 3 mps 741 mmHg 90%
    10:00 +21°C° 0 mm 3 mps 741 mmHg 88%
    11:00 +22°C° 0 mm 3 mps 741 mmHg 85%
    12:00 +24°C° 0 mm 3 mps 741 mmHg 81%
    13:00 +25°C° 0 mm 3 mps 740 mmHg 78%
    14:00 +26°C° 0 mm 3 mps 740 mmHg 74%
    15:00 +26°C° 0 mm 3 mps 740 mmHg 73%
    16:00 +27°C° 0 mm 3 mps 740 mmHg 71%
    17:00 +27°C° 0 mm 3 mps 740 mmHg 70%
    18:00 +26°C° 0 mm 2 mps 740 mmHg 76%
    19:00 +25°C° 0 mm 2 mps 739 mmHg 83%
    20:00 +23°C° 0 mm 2 mps 739 mmHg 89%
    21:00 +23°C° 0.1 mm 2 mps 739 mmHg 92%
    22:00 +21°C° 0.1 mm 2 mps 739 mmHg 95%
    23:00 +20°C° 0.1 mm 2 mps 739 mmHg 97%

    22 July, Sunday

    Time Temperature Precipitation Wind Pressure Humidity
    00:00 +20°C° 0.3 mm 2 mps 739 mmHg 97%
    01:00 +20°C° 0.3 mm 2 mps 739 mmHg 98%
    02:00 +20°C° 0.3 mm 2 mps 739 mmHg 98%
    03:00 +20°C° 0 mm 2 mps 739 mmHg 97%
    04:00 +20°C° 0 mm 2 mps 739 mmHg 96%
    05:00 +21°C° 0 mm 2 mps 739 mmHg 96%
    06:00 +23°C° 0.1 mm 2 mps 739 mmHg 90%
    07:00 +25°C° 0.1 mm 2 mps 739 mmHg 84%
    08:00 +26°C° 0.1 mm 3 mps 739 mmHg 78%
    09:00 +27°C° 0.2 mm 3 mps 739 mmHg 70%
    10:00 +29°C° 0.2 mm 4 mps 739 mmHg 63%
    11:00 +30°C° 0.2 mm 4 mps 739 mmHg 55%
    12:00 +30°C° 0.1 mm 4 mps 739 mmHg 55%
    13:00 +32°C° 0.1 mm 4 mps 739 mmHg 54%
    14:00 +32°C° 0.1 mm 4 mps 738 mmHg 54%
    15:00 +30°C° 0.6 mm 4 mps 738 mmHg 61%
    16:00 +29°C° 0.6 mm 3 mps 738 mmHg 67%
    17:00 +28°C° 0.6 mm 3 mps 738 mmHg 74%
    18:00 +26°C° 0.3 mm 3 mps 738 mmHg 77%
    19:00 +25°C° 0.3 mm 3 mps 738 mmHg 81%
    20:00 +24°C° 0.3 mm 3 mps 738 mmHg 85%
    21:00 +22°C° 1 mm 3 mps 738 mmHg 87%
    22:00 +22°C° 1 mm 3 mps 738 mmHg 90%
    23:00 +21°C° 1 mm 2 mps 738 mmHg 93%
    Show more